QPF
0.00 0.00 0.00 0.00 0.00 0.01 0.01 0.00 0.00 0.01 0.01 0.01 0.01 0.01 0.01 0.02 0.03 0.02 0.01 0.01 0.02 0.03 0.03 0.05 0.06 0.06 0.06 0.07 0.08 0.10 0.14 0.12 0.07 0.05 0.04 0.03 0.03 0.04
0.00 0.00 0.00 0.00 0.00 0.00 0.00 0.00 0.01 0.01 0.02 0.02 0.01 0.00 0.01 0.01 0.02 0.02 0.01 0.01 0.01 0.01 0.01 0.02 0.03 0.03 0.03 0.03 0.04 0.06 0.10 0.10 0.10 0.07 0.05 0.04 0.03 0.04
0.00 0.00 0.00 0.00 0.00 0.00 0.00 0.00 0.01 0.01 0.01 0.01 0.01 0.00 0.00 0.02 0.03 0.04 0.04 0.02 0.01 0.01 0.01 0.01 0.01 0.01 0.01 0.01 0.01 0.02 0.02 0.02 0.03 0.04 0.03 0.03 0.03 0.03
0.01 0.01 0.01 0.01 0.01 0.01 0.01 0.01 0.00 0.01 0.01 0.01 0.01 0.01 0.00 0.01 0.02 0.04 0.04 0.04 0.03 0.02 0.02 0.01 0.00 0.00 0.00 0.00 0.00 0.00 0.01 0.01 0.01 0.01 0.01 0.01 0.02 0.03
0.00 0.00 0.01 0.01 0.01 0.01 0.01 0.00 0.00 0.00 0.00 0.00 0.01 0.01 0.01 0.01 0.01 0.01 0.01 0.01 0.01 0.01 0.00 0.00 0.00 0.00 0.00 0.00 0.00 0.00 0.00 0.00 0.00 0.01 0.01 0.01 0.01 0.02
0.00 0.00 0.00 0.00 0.00 0.00 0.00 0.00 0.00 0.00 0.00 0.00 0.00 0.01 0.01 0.01 0.01 0.01 0.00 0.00 0.00 0.00 0.00 0.00 0.00 0.00 0.00 0.00 0.00 0.00 0.00 0.00 0.00 0.00 0.01 0.01 0.01 0.01
0.00 0.00 0.01 0.01 0.00 0.00 0.00 0.00 0.00 0.00 0.00 0.00 0.00 0.01 0.01 0.01 0.01 0.00 0.00 0.00 0.00 0.00 0.00 0.00 0.00 0.00 0.00 0.00 0.00 0.00 0.00 0.00 0.00 0.00 0.00 0.00 0.00 0.01
0.00 0.00 0.00 0.00 0.00 0.00 0.00 0.00 0.00 0.00 0.00 0.00 0.00 0.00 0.01 0.01 0.01 0.00 0.00 0.00 0.00 0.00 0.00 0.00 0.00 0.00 0.00 0.00 0.00 0.00 0.00 0.00 0.00 0.00 0.00 0.00 0.00 0.00
0.00 0.00 0.00 0.00 0.00 0.00 0.00 0.00 0.00 0.00 0.00 0.00 0.00 0.00 0.01 0.01 0.01 0.01 0.00 0.00 0.00 0.00 0.00 0.00 0.00 0.00 0.00 0.00 0.00 0.00 0.00 0.00 0.00 0.00 0.00 0.00 0.00 0.00
0.00 0.00 0.00 0.01 0.01 0.00 0.00 0.00 0.00 0.00 0.00 0.00 0.00 0.01 0.01 0.01 0.01 0.01 0.01 0.00 0.00 0.00 0.00 0.00 0.00 0.00 0.00 0.00 0.00 0.00 0.00 0.00 0.00 0.00 0.00 0.00 0.00 0.00
0.00 0.00 0.00 0.01 0.01 0.01 0.00 0.00 0.00 0.00 0.00 0.00 0.00 0.00 0.01 0.01 0.01 0.01 0.01 0.00 0.00 0.00 0.00 0.00 0.00 0.00 0.00 0.00 0.00 0.00 0.00 0.00 0.00 0.00 0.00 0.00 0.00 0.00
0.00 0.00 0.00 0.00 0.01 0.00 0.00 0.00 0.00 0.00 0.00 0.00 0.00 0.00 0.00 0.01 0.01 0.00 0.00 0.00 0.00 0.00 0.00 0.00 0.00 0.00 0.00 0.00 0.00 0.00 0.00 0.00 0.00 0.00 0.00 0.00 0.00 0.01
0.00 0.00 0.00 0.00 0.00 0.00 0.00 0.00 0.00 0.00 0.00 0.00 0.00 0.00 0.00 0.00 0.00 0.00 0.00 0.00 0.00 0.00 0.00 0.00 0.00 0.00 0.00 0.00 0.00 0.00 0.00 0.00 0.00 0.00 0.00 0.00 0.00 0.00
0.00 0.00 0.00 0.00 0.00 0.00 0.00 0.00 0.00 0.00 0.00 0.00 0.00 0.00 0.00 0.01 0.01 0.00 0.00 0.00 0.00 0.00 0.00 0.00 0.00 0.00 0.00 0.00 0.00 0.00 0.00 0.00 0.00 0.00 0.00 0.00 0.00 0.00
0.00 0.00 0.00 0.00 0.00 0.00 0.00 0.00 0.00 0.00 0.00 0.00 0.00 0.00 0.00 0.01 0.01 0.01 0.01 0.00 0.00 0.00 0.00 0.00 0.00 0.00 0.00 0.00 0.00 0.00 0.00 0.00 0.00 0.00 0.00 0.00 0.00 0.00
0.00 0.00 0.00 0.00 0.00 0.01 0.01 0.00 0.00 0.00 0.00 0.00 0.00 0.00 0.01 0.01 0.01 0.01 0.00 0.00 0.00 0.00 0.00 0.00 0.00 0.00 0.00 0.00 0.00 0.00 0.00 0.00 0.00 0.00 0.00 0.00 0.00 0.00
0.02 0.01 0.01 0.01 0.01 0.01 0.00 0.00 0.00 0.00 0.00 0.00 0.00 0.00 0.00 0.01 0.01 0.01 0.00 0.00 0.00 0.00 0.00 0.00 0.00 0.00 0.00 0.00 0.00 0.00 0.00 0.00 0.00 0.00 0.00 0.00 0.00 0.00
0.06 0.02 0.01 0.01 0.01 0.01 0.00 0.00 0.00 0.00 0.00 0.00 0.00 0.00 0.00 0.00 0.00 0.00 0.01 0.01 0.00 0.00 0.00 0.00 0.00 0.00 0.00 0.00 0.00 0.00 0.00 0.00 0.00 0.00 0.00 0.01 0.01 0.01
0.05 0.03 0.02 0.02 0.02 0.01 0.01 0.01 0.01 0.01 0.01 0.01 0.00 0.00 0.00 0.00 0.01 0.01 0.01 0.01 0.01 0.01 0.00 0.00 0.00 0.00 0.00 0.00 0.00 0.00 0.00 0.00 0.00 0.00 0.00 0.01 0.01 0.00
0.03 0.03 0.02 0.03 0.04 0.02 0.01 0.01 0.01 0.01 0.01 0.01 0.01 0.01 0.01 0.01 0.01 0.01 0.01 0.01 0.01 0.01 0.01 0.01 0.00 0.00 0.01 0.01 0.00 0.00 0.00 0.00 0.00 0.00 0.00 0.00 0.00 0.00
0.01 0.02 0.02 0.03 0.04 0.04 0.02 0.01 0.00 0.00 0.00 0.01 0.02 0.02 0.03 0.02 0.02 0.02 0.02 0.02 0.01 0.01 0.01 0.01 0.01 0.01 0.01 0.01 0.01 0.00 0.00 0.00 0.00 0.01 0.01 0.01 0.01 0.01
0.00 0.00 0.01 0.02 0.02 0.02 0.02 0.01 0.00 0.00 0.00 0.01 0.01 0.02 0.02 0.03 0.03 0.03 0.02 0.02 0.02 0.01 0.01 0.02 0.02 0.01 0.01 0.01 0.01 0.01 0.00 0.00 0.00 0.01 0.01 0.01 0.02 0.02
0.00 0.00 0.00 0.01 0.01 0.01 0.01 0.01 0.01 0.00 0.00 0.01 0.01 0.02 0.02 0.02 0.03 0.03 0.03 0.02 0.03 0.03 0.02 0.02 0.02 0.01 0.01 0.02 0.02 0.01 0.01 0.01 0.01 0.01 0.01 0.01 0.02 0.02
MSLP
1022.71 1022.81 1022.92 1023.02 1023.08 1023.09 1023.04 1022.93 1022.75 1022.53 1022.26 1021.97 1021.65 1021.31 1020.96 1020.58 1020.19 1019.78 1019.37 1018.95 1018.55 1018.18 1017.84 1017.54 1017.28 1017.04 1016.82 1016.60 1016.39 1016.16 1015.93 1015.67 1015.41 1015.15 1014.90 1014.66 1014.44 1014.27
1023.13 1023.23 1023.33 1023.42 1023.47 1023.49 1023.45 1023.35 1023.21 1023.02 1022.79 1022.53 1022.25 1021.92 1021.57 1021.19 1020.77 1020.33 1019.88 1019.42 1018.98 1018.57 1018.20 1017.87 1017.58 1017.33 1017.10 1016.89 1016.67 1016.45 1016.21 1015.95 1015.68 1015.40 1015.13 1014.86 1014.62 1014.40
1023.65 1023.73 1023.82 1023.88 1023.92 1023.93 1023.90 1023.83 1023.72 1023.58 1023.40 1023.20 1022.95 1022.66 1022.32 1021.94 1021.50 1021.03 1020.52 1020.02 1019.52 1019.05 1018.63 1018.26 1017.93 1017.65 1017.40 1017.16 1016.93 1016.70 1016.45 1016.18 1015.90 1015.61 1015.33 1015.04 1014.78 1014.55
1024.28 1024.34 1024.40 1024.44 1024.45 1024.45 1024.42 1024.36 1024.29 1024.19 1024.07 1023.92 1023.72 1023.47 1023.16 1022.77 1022.32 1021.81 1021.26 1020.70 1020.14 1019.62 1019.13 1018.70 1018.33 1018.00 1017.71 1017.44 1017.18 1016.92 1016.65 1016.37 1016.08 1015.77 1015.48 1015.19 1014.91 1014.66
1025.02 1025.05 1025.07 1025.07 1025.06 1025.03 1024.99 1024.94 1024.89 1024.83 1024.76 1024.66 1024.51 1024.29 1023.99 1023.61 1023.15 1022.61 1022.03 1021.41 1020.80 1020.21 1019.67 1019.18 1018.75 1018.37 1018.03 1017.71 1017.41 1017.11 1016.81 1016.50 1016.19 1015.88 1015.57 1015.27 1014.99 1014.72
1025.81 1025.82 1025.80 1025.76 1025.70 1025.64 1025.58 1025.52 1025.48 1025.44 1025.40 1025.33 1025.21 1025.02 1024.74 1024.37 1023.90 1023.35 1022.73 1022.08 1021.43 1020.80 1020.21 1019.67 1019.18 1018.75 1018.35 1017.98 1017.63 1017.28 1016.94 1016.60 1016.26 1015.92 1015.60 1015.28 1014.99 1014.71
1026.60 1026.56 1026.50 1026.42 1026.31 1026.21 1026.12 1026.05 1026.00 1025.96 1025.93 1025.88 1025.77 1025.60 1025.34 1024.97 1024.51 1023.95 1023.33 1022.67 1021.99 1021.34 1020.72 1020.14 1019.61 1019.13 1018.68 1018.25 1017.84 1017.44 1017.05 1016.66 1016.28 1015.91 1015.56 1015.23 1014.91 1014.61
1027.30 1027.23 1027.12 1026.99 1026.85 1026.70 1026.58 1026.47 1026.40 1026.35 1026.31 1026.26 1026.16 1026.00 1025.75 1025.39 1024.94 1024.40 1023.79 1023.13 1022.47 1021.81 1021.18 1020.58 1020.03 1019.50 1019.00 1018.53 1018.06 1017.59 1017.14 1016.70 1016.27 1015.86 1015.47 1015.11 1014.76 1014.43
1027.86 1027.76 1027.62 1027.45 1027.27 1027.09 1026.92 1026.79 1026.69 1026.61 1026.56 1026.49 1026.39 1026.23 1025.98 1025.65 1025.21 1024.70 1024.12 1023.49 1022.85 1022.21 1021.59 1020.99 1020.42 1019.87 1019.33 1018.80 1018.27 1017.74 1017.23 1016.72 1016.24 1015.78 1015.35 1014.95 1014.56 1014.19
1028.27 1028.14 1027.97 1027.78 1027.57 1027.36 1027.17 1027.01 1026.88 1026.79 1026.71 1026.62 1026.51 1026.34 1026.10 1025.78 1025.38 1024.89 1024.35 1023.76 1023.16 1022.55 1021.95 1021.36 1020.78 1020.21 1019.64 1019.06 1018.47 1017.88 1017.30 1016.74 1016.19 1015.68 1015.20 1014.75 1014.32 1013.91
1028.53 1028.39 1028.21 1028.01 1027.80 1027.58 1027.37 1027.20 1027.05 1026.93 1026.83 1026.72 1026.59 1026.42 1026.18 1025.87 1025.49 1025.03 1024.53 1023.98 1023.41 1022.84 1022.26 1021.68 1021.09 1020.50 1019.90 1019.27 1018.64 1017.99 1017.35 1016.72 1016.12 1015.56 1015.03 1014.53 1014.06 1013.60
1028.69 1028.55 1028.39 1028.20 1027.99 1027.78 1027.58 1027.40 1027.24 1027.10 1026.98 1026.85 1026.70 1026.51 1026.27 1025.96 1025.58 1025.15 1024.66 1024.15 1023.60 1023.05 1022.48 1021.91 1021.32 1020.71 1020.08 1019.42 1018.73 1018.04 1017.35 1016.67 1016.02 1015.41 1014.84 1014.30 1013.79 1013.29
1028.80 1028.68 1028.54 1028.38 1028.20 1028.00 1027.82 1027.64 1027.48 1027.33 1027.18 1027.03 1026.86 1026.64 1026.38 1026.05 1025.67 1025.24 1024.76 1024.25 1023.72 1023.17 1022.60 1022.03 1021.43 1020.80 1020.14 1019.45 1018.73 1018.00 1017.27 1016.55 1015.86 1015.21 1014.60 1014.03 1013.48 1012.95
1028.89 1028.81 1028.70 1028.57 1028.42 1028.26 1028.09 1027.92 1027.75 1027.59 1027.42 1027.24 1027.03 1026.78 1026.48 1026.13 1025.73 1025.27 1024.78 1024.26 1023.71 1023.15 1022.58 1021.99 1021.37 1020.73 1020.05 1019.33 1018.59 1017.84 1017.08 1016.34 1015.62 1014.95 1014.31 1013.70 1013.13 1012.57
1028.99 1028.94 1028.87 1028.78 1028.65 1028.51 1028.35 1028.18 1028.00 1027.82 1027.63 1027.41 1027.16 1026.87 1026.53 1026.14 1025.69 1025.20 1024.68 1024.13 1023.56 1022.98 1022.38 1021.77 1021.14 1020.48 1019.79 1019.06 1018.31 1017.54 1016.77 1016.01 1015.28 1014.58 1013.91 1013.29 1012.69 1012.11
1029.08 1029.06 1029.02 1028.94 1028.83 1028.70 1028.54 1028.36 1028.16 1027.95 1027.72 1027.46 1027.17 1026.83 1026.45 1026.01 1025.52 1024.99 1024.42 1023.84 1023.24 1022.63 1022.01 1021.38 1020.73 1020.07 1019.37 1018.64 1017.88 1017.11 1016.33 1015.56 1014.81 1014.09 1013.40 1012.74 1012.11 1011.51
1029.14 1029.14 1029.10 1029.03 1028.92 1028.76 1028.58 1028.38 1028.15 1027.90 1027.64 1027.34 1027.00 1026.62 1026.19 1025.70 1025.17 1024.60 1024.01 1023.39 1022.76 1022.12 1021.48 1020.84 1020.19 1019.51 1018.81 1018.09 1017.33 1016.56 1015.77 1014.99 1014.21 1013.46 1012.73 1012.04 1011.38 1010.74
1029.16 1029.15 1029.10 1028.99 1028.85 1028.66 1028.44 1028.19 1027.92 1027.64 1027.33 1026.99 1026.62 1026.20 1025.74 1025.22 1024.67 1024.07 1023.45 1022.80 1022.16 1021.50 1020.85 1020.20 1019.54 1018.87 1018.17 1017.44 1016.69 1015.91 1015.10 1014.29 1013.48 1012.69 1011.91 1011.17 1010.46 1009.78
1029.12 1029.07 1028.98 1028.83 1028.63 1028.38 1028.10 1027.80 1027.49 1027.16 1026.81 1026.44 1026.05 1025.61 1025.13 1024.61 1024.04 1023.43 1022.80 1022.15 1021.49 1020.84 1020.18 1019.52 1018.86 1018.18 1017.48 1016.75 1015.99 1015.19 1014.36 1013.51 1012.65 1011.79 1010.96 1010.14 1009.36 1008.62
1029.03 1028.92 1028.76 1028.54 1028.26 1027.95 1027.61 1027.25 1026.88 1026.52 1026.14 1025.76 1025.35 1024.91 1024.43 1023.91 1023.35 1022.75 1022.12 1021.48 1020.82 1020.17 1019.51 1018.85 1018.18 1017.50 1016.79 1016.05 1015.26 1014.43 1013.57 1012.66 1011.74 1010.81 1009.89 1009.00 1008.14 1007.32
1028.89 1028.71 1028.46 1028.15 1027.80 1027.41 1027.00 1026.59 1026.18 1025.78 1025.38 1024.99 1024.58 1024.15 1023.68 1023.18 1022.64 1022.06 1021.45 1020.81 1020.17 1019.52 1018.86 1018.20 1017.53 1016.84 1016.11 1015.35 1014.54 1013.67 1012.75 1011.79 1010.80 1009.79 1008.79 1007.80 1006.85 1005.95
1028.71 1028.44 1028.10 1027.71 1027.27 1026.81 1026.34 1025.87 1025.43 1025.00 1024.60 1024.20 1023.80 1023.38 1022.93 1022.45 1021.93 1021.37 1020.78 1020.17 1019.53 1018.89 1018.23 1017.57 1016.89 1016.18 1015.44 1014.65 1013.81 1012.91 1011.94 1010.93 1009.87 1008.79 1007.70 1006.62 1005.59 1004.60
1028.49 1028.13 1027.70 1027.23 1026.71 1026.18 1025.66 1025.15 1024.68 1024.23 1023.81 1023.41 1023.02 1022.61 1022.18 1021.72 1021.22 1020.68 1020.10 1019.50 1018.87 1018.23 1017.58 1016.91 1016.22 1015.51 1014.76 1013.95 1013.09 1012.16 1011.16 1010.11 1009.00 1007.86 1006.71 1005.56 1004.45 1003.40
Thickness
5680 5679 5678 5677 5676 5674 5673 5671 5667 5663 5663 5666 5668 5670 5671 5671 5671 5671 5671 5671 5672 5672 5673 5674 5674 5675 5676 5676 5677 5678 5678 5679 5679 5680 5681 5682 5683 5683
5677 5676 5675 5674 5673 5672 5670 5669 5667 5664 5661 5662 5663 5665 5666 5667 5667 5667 5667 5667 5667 5667 5667 5668 5668 5669 5669 5670 5670 5670 5670 5671 5671 5672 5673 5673 5674 5675
5673 5672 5671 5670 5669 5668 5667 5665 5663 5662 5659 5659 5659 5661 5661 5662 5662 5662 5662 5662 5662 5662 5662 5662 5662 5662 5663 5663 5663 5663 5663 5663 5663 5664 5664 5665 5666 5667
5669 5668 5667 5666 5664 5663 5662 5661 5659 5658 5656 5654 5654 5655 5656 5656 5656 5656 5657 5656 5656 5656 5656 5655 5655 5655 5656 5655 5655 5655 5655 5655 5655 5655 5656 5656 5657 5657
5666 5664 5663 5661 5659 5658 5657 5656 5654 5654 5652 5650 5648 5648 5648 5649 5649 5650 5650 5650 5650 5650 5649 5649 5648 5648 5648 5648 5648 5648 5647 5647 5647 5647 5647 5647 5647 5648
5662 5660 5659 5657 5655 5654 5652 5650 5649 5647 5645 5643 5642 5641 5641 5641 5641 5641 5641 5641 5641 5642 5642 5642 5641 5641 5641 5641 5641 5640 5640 5640 5639 5639 5638 5638 5639 5639
5657 5656 5655 5653 5652 5650 5648 5645 5643 5641 5638 5637 5635 5634 5633 5633 5633 5633 5632 5632 5633 5633 5633 5634 5634 5634 5633 5633 5632 5632 5632 5631 5631 5630 5630 5629 5629 5629
5651 5650 5649 5648 5647 5645 5644 5642 5639 5636 5633 5630 5628 5627 5627 5627 5626 5626 5624 5623 5624 5625 5624 5625 5624 5624 5624 5624 5624 5623 5623 5622 5622 5621 5621 5620 5620 5619
5646 5644 5643 5642 5640 5638 5637 5635 5633 5632 5630 5627 5624 5622 5622 5621 5620 5618 5616 5615 5615 5616 5615 5616 5615 5615 5615 5615 5615 5614 5613 5613 5612 5611 5610 5610 5609 5608
5641 5639 5637 5635 5634 5631 5629 5627 5625 5624 5623 5622 5620 5619 5618 5616 5614 5613 5610 5608 5606 5606 5605 5605 5606 5606 5607 5606 5605 5604 5603 5602 5601 5600 5599 5598 5597 5596
5637 5635 5632 5630 5629 5627 5624 5620 5618 5617 5616 5616 5614 5612 5611 5609 5607 5604 5600 5598 5597 5596 5594 5593 5594 5594 5596 5596 5595 5593 5591 5590 5589 5588 5587 5586 5585 5584
5631 5630 5628 5626 5624 5621 5617 5614 5611 5609 5608 5607 5605 5603 5602 5600 5598 5595 5592 5588 5585 5584 5584 5581 5581 5580 5583 5585 5583 5581 5579 5578 5576 5575 5574 5573 5572 5571
5626 5624 5622 5621 5618 5615 5612 5608 5606 5603 5600 5598 5595 5593 5592 5590 5587 5585 5582 5579 5575 5573 5572 5570 5568 5566 5565 5568 5570 5568 5566 5564 5563 5562 5561 5559 5558 5556
5621 5619 5617 5615 5612 5608 5605 5602 5599 5596 5592 5588 5586 5583 5581 5579 5577 5575 5572 5570 5567 5564 5562 5558 5556 5553 5551 5552 5554 5555 5552 5550 5548 5547 5546 5546 5544 5543
5617 5614 5611 5608 5604 5600 5597 5594 5591 5586 5582 5578 5575 5573 5571 5569 5567 5565 5562 5559 5557 5554 5551 5547 5544 5541 5538 5537 5538 5538 5537 5537 5535 5533 5532 5531 5529 5528
5610 5607 5603 5600 5596 5592 5589 5585 5581 5577 5573 5569 5566 5563 5561 5558 5555 5553 5550 5547 5544 5543 5539 5535 5532 5529 5526 5524 5522 5522 5520 5520 5520 5518 5517 5517 5515 5513
5603 5598 5593 5589 5585 5582 5578 5575 5571 5567 5564 5560 5556 5553 5550 5547 5544 5541 5538 5534 5531 5529 5528 5524 5520 5517 5514 5511 5510 5509 5507 5506 5504 5503 5502 5503 5503 5500
5595 5589 5585 5581 5577 5573 5570 5566 5562 5559 5555 5551 5547 5544 5540 5537 5533 5530 5526 5523 5520 5518 5515 5512 5508 5505 5503 5501 5497 5495 5493 5492 5491 5488 5486 5487 5491 5490
5586 5581 5577 5573 5569 5566 5562 5558 5554 5551 5547 5542 5538 5534 5530 5527 5523 5519 5516 5512 5509 5506 5503 5498 5494 5490 5489 5490 5489 5482 5478 5478 5476 5475 5473 5472 5474 5476
5578 5574 5570 5566 5562 5558 5554 5549 5545 5541 5537 5533 5529 5525 5521 5517 5513 5509 5505 5501 5498 5494 5491 5486 5481 5477 5474 5473 5474 5471 5465 5461 5461 5461 5460 5459 5459 5460
5569 5565 5562 5558 5554 5550 5545 5541 5536 5532 5528 5523 5519 5515 5511 5506 5503 5499 5495 5491 5486 5482 5479 5475 5471 5465 5461 5458 5457 5458 5454 5449 5446 5445 5445 5444 5446 5447
5562 5558 5554 5550 5545 5541 5536 5532 5527 5523 5518 5513 5509 5505 5501 5496 5492 5488 5484 5479 5475 5471 5467 5463 5458 5453 5449 5446 5445 5444 5443 5440 5437 5433 5431 5430 5428 5432
5554 5550 5546 5541 5537 5532 5527 5522 5518 5513 5509 5505 5500 5496 5491 5486 5482 5477 5473 5468 5463 5459 5454 5450 5446 5441 5437 5434 5432 5431 5430 5428 5427 5425 5424 5422 5419 5420